Home > Weather > Caguas > Past weeks

Flag for Puerto Rico Weather for the Past 2 Weeks in Caguas, Puerto Rico

Now
76 °F

Passing clouds.


Feels Like: 77 °F
Forecast: 67 / 84 °F
Wind: No wind

Location: Luis Munoz Marin

Current Time: Feb 14, 2016 at 3:00:37 AM

Latest Report: Feb 14, 2016 at 1:56 AM


Visibility: 10 mi

Pressure: 30.01 "Hg

Humidity: 80%

Dew point: 69 °F

Location of CaguasLocation

Historic Weather in Caguas — Graph

°F

Caguas Temperature Yesterday

Maximum temperature yesterday: 84 °F (at 1:56 PM)
Minimum temperature yesterday: 74 °F (at 4:56 AM)
Average temperature yesterday: 78 °F

High & Low Weather Summary for the Past Weeks

 TemperatureHumidityPressure
High87 °F (Feb 8, 1:56 PM)100% (Feb 7, 9:56 AM)30.15 "Hg (Feb 7, 9:56 AM)
Low68 °F (Feb 2, 11:56 PM)48% (Feb 4, 1:56 PM)29.91 "Hg (Feb 5, 3:56 AM)
Average78 °F75%30.03 "Hg
* Reported Jan 30 1:56 AM — Feb 14 1:56 AM, Caguas, Weather by CustomWeather, © 2016

Note: Actual official high and low records may vary slightly from our data, if they occured in-between our weather recording intervals... More about our weather records

Advertising

Caguas Weather History for the Previous 24 Hours

 ConditionsComfort  
Time TempWeatherWind HumidityBarometerVisibility
1:56 AM
Sun, Feb 14
76 °FPassing clouds.No wind80%30.01 "Hg10 mi
12:56 AM75 °FPassing clouds.No wind82%30.02 "Hg10 mi
11:56 PM
Sat, Feb 13
75 °FPassing clouds.No wind79%30.04 "Hg10 mi
10:56 PM77 °FPassing clouds.No wind74%30.04 "Hg10 mi
9:56 PM77 °FPassing clouds.No wind71%30.04 "Hg10 mi
8:56 PM77 °FPassing clouds.No wind71%30.03 "Hg10 mi
7:56 PM79 °FPassing clouds.No wind65%30.01 "Hg10 mi
6:56 PM79 °FScattered clouds.6 mph67%30.00 "Hg10 mi
5:56 PM80 °FScattered clouds.9 mph62%29.98 "Hg10 mi
4:56 PM83 °FScattered clouds.14 mph53%29.96 "Hg10 mi
3:56 PM84 °FScattered clouds.15 mph48%29.96 "Hg9 mi
2:56 PM84 °FScattered clouds.12 mph48%29.97 "Hg9 mi
1:56 PM84 °FScattered clouds.9 mph53%29.99 "Hg9 mi
12:56 PM83 °FScattered clouds.15 mph63%30.02 "Hg9 mi
11:56 AM83 °FScattered clouds.12 mph61%30.04 "Hg9 mi
10:56 AM82 °FScattered clouds.9 mph67%30.06 "Hg9 mi
9:56 AM80 °FScattered clouds.13 mph69%30.07 "Hg9 mi
8:56 AM79 °FScattered clouds.8 mph72%30.06 "Hg9 mi
7:56 AM75 °FPassing clouds.No wind79%30.04 "Hg9 mi
6:56 AM74 °FPassing clouds.No wind82%30.03 "Hg10 mi
5:56 AM74 °FPassing clouds.No wind82%30.01 "Hg10 mi
4:56 AM74 °FPassing clouds.No wind82%30.00 "Hg10 mi
3:56 AM75 °FPassing clouds.No wind85%30.00 "Hg10 mi
Weather by CustomWeather, © 2016

See weather overviewHow to use our weather pages